THORAD AGENA D DEB, 42514

Orbit data source: Space-Track

THORAD AGENA D DEB, 42514 is space debris in SSO originally from a launch on Wed, 08 Apr 1970 UTC launched from the Air Force Western Test Range (AFWTR). Debris objects in space refer to the collection of defunct objects orbiting the Earth. Examples of debris include non-operational satellites, rocket bodies, and fragments generated from explosions, collisions, or faulty payload assembly.

Loading next visibility...
Identifier
42514, 1970-025RU
Orbit
SSO
Country
Flag of USUS
Related business
Manufacturer
Unknown
Mission
Spacecraft
Bus & Motor
Unknown
Mass
Unknown
Launch date (UTC)
1970-04-08 (56 years ago)
Launch vehicle
Unknown
Launch site
Air Force Western Test Range (AFWTR)
Object type
Payload
Rocket body
Debris
Shape & HBR
Unknown shape, 0.1 m
Radar Cross Section
Small (<0.1 m²)

Expand to show TLE details & history
Last TLE update: 5 days ago

TLE from 5 days ago
0 THORAD AGENA D DEB
1 42514U 70025RU  25347.64779350  .00000454  00000-0  10652-2 0  9991
2 42514  99.3726 123.9833 0183261  35.7840 325.5401 13.23203922582069
Epoch: 2025-12-13T15:32Z
TLE epoch observation values (Epoch: 2025-12-13T15:32:49.358Z)
Latitude
-0.00002°
Longitude
168.20559°
Altitude
1,061.985 km
Speed
7.376 km/s
True Right ascension
08h 15m 55s
True Declination
0° 00' 00"
Sunlit
Object was in full shadow at epoch
Visualization orbit readout
Latitude
Unknown
Longitude
Unknown
Altitude
Unknown
Speed
Unknown
Apparent Right ascension
Unknown
Apparent Declination
Unknown
Sunlit
N/A
Visualization observer readout
Local Sidereal Time
21:32:25
Azimuth
Unknown
Elevation
Unknown
Doppler factor
Unknown
Orbital elements
Apogee altitude
1,308.151 km
Perigee altitude
1,031.502 km
Semi-major axis
7,547.964 km
Eccentricity
0.01833
Inclination
99.3726°
RAAN
123.9833°
Arg. of periapsis
35.784°
True anomaly
324.32908°
Mean anomaly
325.5401°
Eccentric anomaly
324.93689°
Mean motion
3.30978 °/min
Orbital period
108.77 mins
BSTAR
0.0010652
Loading maneuver chart data...
Computing Atmospheric mass density...

Documentation

Showing up to 5 results
|